TimeCST,TemperatureF,Dew PointF,Humidity,Sea Level PressureIn,VisibilityMPH,Wind Direction,Wind SpeedMPH,Gust SpeedMPH,PrecipitationIn,Events,Conditions,WindDirDegrees,DateUTC
12:09 AM,-16.6,-23.8,70,30.09,10.0,Calm,Calm,-,N/A,,Mostly Cloudy,0,2013-01-23 06:09:00
12:30 AM,-16.6,-22.0,76,30.09,10.0,Calm,Calm,-,N/A,,Overcast,0,2013-01-23 06:30:00
12:49 AM,-14.8,-20.2,77,30.08,10.0,Calm,Calm,-,N/A,,Overcast,0,2013-01-23 06:49:00
1:09 AM,-16.6,-25.6,64,30.07,10.0,Calm,Calm,-,N/A,,Overcast,0,2013-01-23 07:09:00
1:30 AM,-16.6,-23.8,70,30.08,10.0,Calm,Calm,-,N/A,,Scattered Clouds,0,2013-01-23 07:30:00
1:49 AM,-16.6,-23.8,70,30.08,10.0,Calm,Calm,-,N/A,,Clear,0,2013-01-23 07:49:00
2:09 AM,-18.4,-25.6,70,30.08,10.0,Calm,Calm,-,N/A,,Mostly Cloudy,0,2013-01-23 08:09:00
2:30 AM,-20.2,-27.4,69,30.08,10.0,Calm,Calm,-,N/A,,Overcast,0,2013-01-23 08:30:00
2:49 AM,-18.4,-25.6,70,30.08,10.0,Calm,Calm,-,N/A,,Overcast,0,2013-01-23 08:49:00
3:09 AM,-16.6,-23.8,70,30.07,10.0,Calm,Calm,-,N/A,,Overcast,0,2013-01-23 09:09:00
3:30 AM,-16.6,-22.0,76,30.06,10.0,Calm,Calm,-,N/A,,Overcast,0,2013-01-23 09:30:00
3:49 AM,-14.8,-22.0,70,30.06,10.0,Calm,Calm,-,N/A,,Overcast,0,2013-01-23 09:49:00
4:09 AM,-13.0,-18.4,77,30.05,10.0,Calm,Calm,-,N/A,Snow,Light Snow,0,2013-01-23 10:09:00
4:29 AM,-11.2,-16.6,77,30.05,4.0,Calm,Calm,-,N/A,Snow,Light Snow,0,2013-01-23 10:29:00
4:49 AM,-9.4,-14.8,77,30.04,3.0,Calm,Calm,-,N/A,Snow,Light Snow,0,2013-01-23 10:49:00
5:10 AM,-7.6,-13.0,77,30.03,2.5,WSW,3.5,-,N/A,Snow,Light Snow,250,2013-01-23 11:10:00
5:29 AM,-5.8,-11.2,77,30.03,3.0,Calm,Calm,-,N/A,Snow,Light Snow,0,2013-01-23 11:29:00
5:49 AM,-5.8,-11.2,77,30.03,1.2,Calm,Calm,-,N/A,Snow,Light Snow,0,2013-01-23 11:49:00
6:10 AM,-5.8,-13.0,71,30.02,1.8,Calm,Calm,-,N/A,Snow,Light Snow,0,2013-01-23 12:10:00
6:29 AM,-5.8,-11.2,77,30.02,1.8,Calm,Calm,-,N/A,Snow,Light Snow,0,2013-01-23 12:29:00
6:50 AM,-5.8,-9.4,84,30.01,2.0,West,3.5,-,N/A,Snow,Light Snow,260,2013-01-23 12:50:00
7:09 AM,-5.8,-9.4,84,30.01,1.8,West,3.5,-,N/A,Snow,Light Snow,260,2013-01-23 13:09:00
7:30 AM,-2.2,-7.6,78,30.01,1.5,Calm,Calm,-,N/A,Snow,Light Snow,0,2013-01-23 13:30:00
7:49 AM,-2.2,-7.6,78,30.00,1.2,Calm,Calm,-,N/A,Snow,Light Snow,0,2013-01-23 13:49:00
8:09 AM,-2.2,-7.6,78,30.01,0.5,Calm,Calm,-,N/A,Snow,Snow,0,2013-01-23 14:09:00
8:30 AM,-2.2,-7.6,78,30.01,1.0,WSW,3.5,-,N/A,Snow,Light Snow,240,2013-01-23 14:30:00
8:49 AM,-2.2,-7.6,78,30.02,4.0,West,3.5,-,N/A,Snow,Light Snow,280,2013-01-23 14:49:00
9:09 AM,-2.2,-7.6,78,30.02,7.0,WNW,3.5,-,N/A,Snow,Light Snow,290,2013-01-23 15:09:00
9:30 AM,-0.4,-5.8,78,30.03,3.0,NW,11.5,19.6,N/A,Snow,Light Snow,310,2013-01-23 15:30:00
9:49 AM,1.4,-5.8,72,30.05,4.0,WNW,16.1,20.7,N/A,,Haze,290,2013-01-23 15:49:00
10:09 AM,1.4,-7.6,66,30.05,3.0,WNW,11.5,19.6,N/A,,Haze,300,2013-01-23 16:09:00
10:30 AM,1.4,-7.6,66,30.07,2.5,NW,15.0,19.6,N/A,,Haze,320,2013-01-23 16:30:00
10:49 AM,-0.4,-7.6,72,30.07,4.0,NW,13.8,23.0,N/A,,Haze,310,2013-01-23 16:49:00
11:09 AM,-0.4,-9.4,66,30.09,4.0,NW,17.3,26.5,N/A,,Haze,310,2013-01-23 17:09:00
11:30 AM,-0.4,-9.4,66,30.10,2.5,NW,19.6,26.5,N/A,,Haze,310,2013-01-23 17:30:00
11:49 AM,-0.4,-9.4,66,30.11,1.5,NW,16.1,24.2,N/A,,Haze,310,2013-01-23 17:49:00
12:09 PM,-2.2,-11.2,66,30.12,1.5,NNW,16.1,28.8,N/A,,Haze,330,2013-01-23 18:09:00
12:30 PM,-2.2,-11.2,66,30.14,2.0,NW,17.3,23.0,N/A,,Haze,320,2013-01-23 18:30:00
12:49 PM,-2.2,-13.0,60,30.15,2.0,NW,19.6,26.5,N/A,,Haze,310,2013-01-23 18:49:00
1:09 PM,-2.2,-13.0,60,30.15,5.0,NNW,12.7,20.7,N/A,,Haze,340,2013-01-23 19:09:00
1:30 PM,-2.2,-13.0,60,30.17,3.0,NW,17.3,23.0,N/A,,Haze,310,2013-01-23 19:30:00
1:49 PM,-2.2,-14.8,55,30.18,7.0,NNW,12.7,24.2,N/A,,Overcast,330,2013-01-23 19:49:00
2:09 PM,-2.2,-14.8,55,30.21,5.0,NW,11.5,23.0,N/A,,Haze,320,2013-01-23 20:09:00
2:30 PM,-2.2,-14.8,55,30.22,10.0,NNW,13.8,21.9,N/A,,Overcast,340,2013-01-23 20:30:00
2:49 PM,-2.2,-14.8,55,30.25,10.0,NW,11.5,23.0,N/A,,Mostly Cloudy,320,2013-01-23 20:49:00
3:09 PM,-4.0,-16.6,55,30.26,10.0,NNW,10.4,23.0,N/A,,Mostly Cloudy,340,2013-01-23 21:09:00
3:30 PM,-4.0,-16.6,55,30.28,10.0,North,15.0,19.6,N/A,,Mostly Cloudy,360,2013-01-23 21:30:00
3:49 PM,-5.8,-16.6,60,30.29,10.0,NNW,10.4,16.1,N/A,,Scattered Clouds,330,2013-01-23 21:49:00
4:10 PM,-5.8,-16.6,60,30.31,10.0,North,10.4,20.7,N/A,,Scattered Clouds,350,2013-01-23 22:10:00
4:29 PM,-5.8,-16.6,60,30.33,10.0,NNW,8.1,-,N/A,,Clear,340,2013-01-23 22:29:00
4:49 PM,-5.8,-18.4,55,30.34,10.0,NNW,8.1,-,N/A,,Clear,340,2013-01-23 22:49:00
5:10 PM,-7.6,-18.4,59,30.35,10.0,NNW,11.5,17.3,N/A,,Clear,340,2013-01-23 23:10:00
5:29 PM,-7.6,-18.4,59,30.37,10.0,NNW,9.2,-,N/A,,Clear,330,2013-01-23 23:29:00
5:49 PM,-7.6,-18.4,59,30.39,10.0,NNW,9.2,-,N/A,,Clear,330,2013-01-23 23:49:00
6:10 PM,-7.6,-18.4,59,30.41,10.0,NW,8.1,-,N/A,,Clear,320,2013-01-24 00:10:00
6:29 PM,-7.6,-18.4,59,30.43,10.0,NW,5.8,17.3,N/A,,Clear,310,2013-01-24 00:29:00
6:49 PM,-7.6,-18.4,59,30.44,10.0,NW,10.4,-,N/A,,Scattered Clouds,320,2013-01-24 00:49:00
7:10 PM,-7.6,-18.4,59,30.45,10.0,NNW,6.9,-,N/A,,Scattered Clouds,330,2013-01-24 01:10:00
7:29 PM,-9.4,-18.4,65,30.46,10.0,NNW,5.8,-,N/A,,Clear,330,2013-01-24 01:29:00
7:49 PM,-9.4,-18.4,65,30.46,10.0,NNW,6.9,-,N/A,,Clear,330,2013-01-24 01:49:00
8:09 PM,-9.4,-18.4,65,30.47,10.0,NNW,6.9,-,N/A,,Clear,340,2013-01-24 02:09:00
8:29 PM,-9.4,-18.4,65,30.47,10.0,North,4.6,-,N/A,,Clear,350,2013-01-24 02:29:00
9:09 PM,-11.2,-20.2,64,30.49,10.0,NNW,6.9,-,N/A,,Clear,340,2013-01-24 03:09:00
9:29 PM,-13.0,-22.0,64,30.49,10.0,North,4.6,-,N/A,,Clear,10,2013-01-24 03:29:00
9:50 PM,-13.0,-22.0,64,30.50,10.0,Calm,Calm,-,N/A,,Clear,0,2013-01-24 03:50:00
10:09 PM,-13.0,-22.0,64,30.51,10.0,North,6.9,-,N/A,,Clear,350,2013-01-24 04:09:00
10:29 PM,-13.0,-22.0,64,30.52,10.0,North,6.9,-,N/A,,Clear,350,2013-01-24 04:29:00
10:50 PM,-13.0,-22.0,64,30.52,10.0,North,4.6,-,N/A,,Clear,10,2013-01-24 04:50:00
11:09 PM,-14.8,-22.0,70,30.52,10.0,North,4.6,-,N/A,,Clear,10,2013-01-24 05:09:00
11:29 PM,-14.8,-23.8,64,30.53,10.0,NNW,3.5,-,N/A,,Clear,340,2013-01-24 05:29:00
11:50 PM,-14.8,-23.8,64,30.54,10.0,Calm,Calm,-,N/A,,Clear,0,2013-01-24 05:50:00